[Iaude] MPEC C50: 2024 BS6 [a=1.82,e=0.47,i=16.6,H=25.5]
    mpec at marsden.cfa.harvard.edu 
    mpec at marsden.cfa.harvard.edu
       
    Mon Feb  5 09:14:30 EST 2024
    
    
  
M.P.E.C. 2024-C50                              Issued 2024 February 5, 14:12 UT
     The Minor Planet Electronic Circulars contain information on unusual
         minor planets, routine data on comets and natural satellites,
         and occasional editorial announcements.  They are published
    on behalf of Division F of the International Astronomical Union by the
          Minor Planet Center, Smithsonian Astrophysical Observatory,
                          Cambridge, MA 02138, U.S.A.
			  
             Prepared using the Tamkin Foundation Computer Network
                              MPC at CFA.HARVARD.EDU
            URL https://www.minorplanetcenter.net/    ISSN 1523-6714
                                    2024 BS6                                    
Observations:
     K24B06S* C2024 01 31.24268005 20 31.638+26 50 03.73         18.04gUEC050I41
     K24B06S  C2024 01 31.24302705 20 32.796+26 50 38.47         18.04gUEC050I41
     K24B06S  C2024 01 31.30997305 24 37.738+28 39 07.04               UEC050I41
     K24B06S  C2024 01 31.31032005 24 39.005+28 39 40.09               UEC050I41
     K24B06S  C2024 02 01.24741006 38 36.377+50 05 21.12         18.34gUEC050I41
     K24B06S  C2024 02 01.24775806 38 38.357+50 05 43.53         18.34gUEC050I41
     K24B06S  C2024 02 01.39084106 51 39.579+52 28 40.37         17.76GVEC050F52
     K24B06S  C2024 02 01.39348806 51 53.518+52 31 06.54         18.01GVEC050F52
     K24B06S KC2024 02 05.24434311 26 32.22 +64 48 08.0          20.0 GXEC050858
     K24B06S KC2024 02 05.25129411 26 44.95 +64 47 52.4          19.8 GXEC050858
     K24B06S KC2024 02 05.25831011 26 57.63 +64 47 36.5          19.8 GXEC050858
     K24B06S  C2024 02 05.34190011 29 27.085+64 44 08.38         20.36GVEC050V00
     K24B06S  C2024 02 05.34679711 29 35.452+64 43 54.98         20.39GVEC050V00
     K24B06S  C2024 02 05.35169011 29 43.670+64 43 41.77         20.30GVEC050V00
     K24B06S  C2024 02 05.35658011 29 51.925+64 43 28.13         20.50GVEC050V00
Observer details:
858 Tebbutt Observatory, Edgewood.  Observer F. B. Zoltowski.  0.51-m f/8.1
    Schmidt-Cassegrain + CCD.
F52 Pan-STARRS 2, Haleakala.  Observers J. Herman, T. Lowe, P. Minguez, A.
    Schultz, I. Smith.  Measurers K. Chambers, T. de Boer, J. Fairlamb, H.
    Gao, M. Huber, C.-C. Lin, E. Magnier, Y. Ramanjooloo, R. Wainscoat, R.
    Weryk.  1.8-m Ritchey-Chretien + CCD.
I41 Palomar Mountain--ZTF.  Observers G. Helou, T. A. Prince, K.
    Venkataramani, D. Kulkarni, Q.-Z. Ye, Z. T. F. Collaboration.  Measurers
    D. A. Duev, H.-W. Lin, A. A. Mahabal, F. J. Masci, Q.-Z. Ye.  1.2-m f/2.4
    Schmidt + ZTF Camera.
V00 Kitt Peak-Bok.  Observer K. W. Wierzchos.  Measurers M. J. Brucker, C. E.
    Woodward, D. Fay, J. B. Fazekas, D. C. Fuls, A. R. Gibbs, H. Groeller, J.
    K. Hogan, R. A. Kowalski, S. M. Larson, C. Lejoly, G. J. Leonard, R. A.
    Mastaler, R. S. McMillan, D. Rankin, R. L. Seaman, A. Serrano, F. C.
    Shelly, K. W. Wierzchos.  2.25-m reflector + 4x4K mosaic CCD.
Orbital elements:
2024 BS6                                                 Earth MOID = 0.0061 AU
Epoch 2023 Sept. 13.0 TT = JDT 2460200.5                Bell                    
M 311.30070              (2000.0)            P               Q                  
n   0.40216337     Peri.  336.52744     -0.29386214     -0.93041563             
a   1.8177509      Node   129.80218     +0.91593223     -0.33962445             
e   0.4680581      Incl.   16.56436     +0.27333715     +0.13777511             
P   2.45           H   25.59          G   0.15           U   8                  
Residuals in seconds of arc
240131 I41  0.7+  0.6-    240201 I41  0.7+  0.4+    240205 858  0.5-  0.3+
240131 I41  0.4-  0.1+    240201 F52  0.1-  0.3+    240205 V00  0.2-  0.0
240131 I41  0.3+  1.1+    240201 F52  0.4-  0.1+    240205 V00  0.2+  0.2-
240131 I41  0.1-  0.7+    240205 858  0.1-  0.3+    240205 V00  0.1-  0.0
240201 I41  1.2-  0.3-    240205 858  0.0   0.3+    240205 V00  0.1+  0.1-
Ephemeris:
2024 BS6                 a,e,i = 1.82, 0.47, 17                  q = 0.9669
Date    TT    R. A. (2000) Decl.     Delta      r    Elong.  Phase     V
2024 01 06    02 01 04.0 -52 19 06   0.1682  0.9697    80.4    89.7    24.8
...
2024 01 21    02 30 21.8 -47 13 30   0.07056 0.9728    78.8    97.1    23.3
...
2024 01 29    03 48 27.6 -20 41 15   0.01944 0.9878    98.1    80.7    19.8
...
2024 02 04    10 32 47.0 +65 33 07   0.02962 1.0046   128.9    49.8    19.8
2024 02 05    11 17 45.1 +64 59 43   0.03597 1.0078   126.8    51.6    20.3
2024 02 06    11 47 13.8 +64 07 00   0.04248 1.0111   125.3    52.7    20.7
...
2024 02 12    12 51 01.4 +60 08 35   0.08285 1.0336   122.3    53.9    22.2
...
2024 02 20    13 07 01.2 +57 37 46   0.1375  1.0693   122.8    51.0    23.3
...
2024 03 06    13 03 14.5 +54 26 41   0.2410  1.1501   125.9    44.3    24.5
M. P. C. Staff               (C) Copyright 2024 MPC           M.P.E.C. 2024-C50
    
    
More information about the Iaude
mailing list